Location: Taukkyan
(23.1052°N, 94.0030°E)
Time: 11:49:58
(UTC+00:00)

Delta 198 - Pass Details

Date: 06 July 2020
Orbit: 458 x 1019 km, 24.8° (Epoch: 14 August)

Event Time Altitude Azimuth Distance (km) Brightness Sun altitude
Exits shadow 20:56:46 73° 134° (SE) 710 3.7 -25.4°
Drops below altitude 10° 21:00:56 10° 106° (ESE) 1,955 6.5 -24.7°
Sets 21:03:04 0° 105° (ESE) 2,776 7.4 -24.3°
